Location: Unspecified
(35.3190°N, 0.0000°E)
Time: 02:37:14
(UTC+00:00)

SR 7A - Visible Passes

Search period start: 04 April 2026 00:00
Search period end: 14 April 2026 00:00
Orbit: 899 x 916 km, 69.9° (Epoch: 29 March)

Date Brightness Start Highest point End Pass type
(mag) Time Alt. Az. Time Alt. Az. Time Alt. Az.
4 Apr 9.2 01:59:26 10° N 02:04:17 25° ENE 02:05:09 24° ENE visible
4 Apr 8.1 03:44:26 10° NW 03:57:57 - S 03:48:07 34° WNW visible
4 Apr 10.2 18:48:20 10° W 18:51:19 14° NW 18:54:17 10° NNW visible
5 Apr 9.0 02:03:54 10° N 02:07:41 29° NNE 02:07:41 29° NNE visible
5 Apr 9.1 03:49:36 10° NW 03:50:46 15° NW 03:50:46 15° NW visible
6 Apr 9.1 02:08:29 10° N 02:11:09 26° N 02:11:09 26° N visible
7 Apr 9.3 02:13:12 10° NNW 02:14:58 20° NNW 02:14:58 20° NNW visible
8 Apr 10.1 00:34:48 10° NNE 00:35:53 12° NNE 00:35:53 12° NNE visible
8 Apr 9.5 02:17:58 10° NNW 02:19:02 16° NNW 02:19:02 16° NNW visible
9 Apr 9.9 00:38:41 10° NNE 00:40:03 14° NNE 00:40:03 14° NNE visible
9 Apr 9.7 02:22:52 10° NNW 02:23:13 12° NNW 02:23:13 12° NNW visible
10 Apr 9.9 00:42:56 10° N 00:44:20 15° NNE 00:44:20 15° NNE visible
11 Apr 9.8 00:47:24 10° N 00:48:41 16° N 00:48:41 16° N visible
12 Apr 9.8 00:51:59 10° N 00:53:05 16° N 00:53:05 16° N visible
13 Apr 9.8 00:56:39 10° NNW 00:57:33 15° NNW 00:57:33 15° NNW visible
13 Apr 10.0 23:18:25 10° NNE 23:18:52 11° NNE 23:18:52 11° NNE visible
